Terminal Aerodrome Forecast
Issued by NWS Chicago, IL

Home | Current Version | Previous Version | Graphics & Text | Print | Product List | Glossary On
Versions: 1 2 3 4 5 6 7 8 9 10 11 12 13 14 15 16 17 18 19 20 21 22 23 24 25 26 27 28
000
FTUS43 KLOT 240907 AAA
TAFRFD
TAF AMD
KRFD 240907Z 2409/2506 06013G20KT 4SM -RADZ BR OVC005
     FM241800 03012KT 5SM -SHRA BR OVC005
     FM242100 33012KT P6SM SCT007 BKN015
     FM250200 30012G18KT P6SM OVC022=

USA.gov is the U.S. government's official web portal to all federal, state and local government web resources and services.